Weather History for St. Cloud, MN

Change the Weather History Date:

Sunday, September 18, 2011

  Actual Average Record
Temperature  
Mean Temperature 54 °F 58 °F  
Max Temperature 59 °F 69 °F 88 °F (1984)
Min Temperature 48 °F 46 °F 29 °F (1993)
Degree Days  
Heating Degree Days 11 8  
Month to date heating degree days 111 100  
Since 1 July heating degree days 112 158  
Cooling Degree Days 0 1  
Month to date cooling degree days 49 28  
Year to date cooling degree days 607 457  
Growing Degree Days 4 (Base 50)    
Moisture  
Dew Point 53 °F    
Average Humidity 84    
Maximum Humidity 100    
Minimum Humidity 67    
Precipitation  
Precipitation 0.39 in 0.11 in 1.84 in (1963)
Month to date precipitation 0.55 2.22  
Year to date precipitation 25.90 21.80  
Snow  
Snow 0.00 in 0.00 in T in (1954)
Month to date snowfall 0.0 0.0  
Since 1 July snowfall 0.0 0.0  
Since 1 September snowfall 0.0 0.0  
Snow Depth 0.00 in    
Sea Level Pressure  
Sea Level Pressure 29.99 in    
Wind  
Wind Speed 6 mph (South)    
Max Wind Speed 20 mph    
Max Gust Speed 25 mph    
Visibility 6 miles    
Events Fog , Rain    
T = Trace of Precipitation, MM = Missing Value Source: NWS Daily Summary

Daily Weather History Graph

Daily Weather History Graph

Search for Another Location

Airport:

Trip Planner

Search our weather history database for the weather conditions in past years. The results will help you decide how hot, cold, wet, or windy it might be!

Date:

Astronomy

Sep. 18, 2011 Rise Set
Actual Time 6:58 AM CDT 7:22 PM CDT
Civil Twilight 6:28 AM CDT 7:51 PM CDT
Nautical Twilight 5:53 AM CDT 8:26 PM CDT
Astronomical Twilight 5:16 AM CDT 9:02 PM CDT
Moon 10:17 PM CDT (9/18) 1:16 PM CDT (9/18)
Length of Visible Light 13h 23m
Length of Day
12h 23m
Waning Gibbous, 68% of the Moon is Illuminated
Sep 18
Waning Gibbous
Sep 20
Last Quarter
Sep 27
New
Oct 3
First Quarter
Oct 11
Full

Hourly Weather History & Observations

Time (CDT) Temp. Dew Point Humidity Pressure Visibility Wind Dir Wind Speed Gust Speed Precip Events Conditions
12:53 AM 57.0 °F 46.9 °F 69% 30.11 in 10.0 mi South 12.7 mph 18.4 mph N/A   Overcast
1:37 AM 55.4 °F 48.2 °F 77% 30.07 in 10.0 mi SSE 11.5 mph - 0.00 in Rain Light Rain
1:53 AM 55.0 °F 48.9 °F 80% 30.09 in 10.0 mi SSE 10.4 mph - 0.00 in   Overcast
2:07 AM 55.4 °F 48.2 °F 77% 30.05 in 10.0 mi SE 11.5 mph - N/A   Overcast
2:53 AM 55.0 °F 50.0 °F 83% 30.06 in 10.0 mi ESE 10.4 mph - N/A   Overcast
3:53 AM 53.6 °F 51.8 °F 94% 30.03 in 10.0 mi ESE 6.9 mph - N/A   Overcast
4:26 AM 55.4 °F 50.0 °F 82% 30.02 in 10.0 mi ESE 8.1 mph - N/A   Overcast
4:53 AM 55.0 °F 50.0 °F 83% 30.05 in 10.0 mi SE 6.9 mph - N/A   Overcast
5:53 AM 53.6 °F 51.8 °F 94% 30.02 in 4.0 mi SSE 8.1 mph - N/A Rain Light Rain
6:13 AM 53.6 °F 51.8 °F 94% 30.02 in 5.0 mi SE 8.1 mph - 0.00 in Rain Light Rain
6:30 AM 53.6 °F 51.8 °F 94% 30.01 in 2.0 mi SE 4.6 mph - 0.06 in Rain Heavy Rain
6:46 AM 53.6 °F 51.8 °F 94% 30.01 in 4.0 mi SE 4.6 mph - 0.11 in Rain Light Rain
6:53 AM 54.0 °F 52.0 °F 93% 30.04 in 4.0 mi ESE 4.6 mph - 0.11 in Rain Light Rain
7:06 AM 53.6 °F 51.8 °F 94% 30.01 in 4.0 mi SE 6.9 mph - 0.00 in   Overcast
7:16 AM 53.6 °F 51.8 °F 94% 30.01 in 2.5 mi SSE 11.5 mph - 0.02 in Rain Light Rain
7:21 AM 53.6 °F 51.8 °F 94% 30.01 in 3.0 mi SSE 10.4 mph - 0.03 in Rain Light Rain
7:31 AM 53.6 °F 51.8 °F 94% 30.01 in 5.0 mi SSE 9.2 mph - 0.03 in   Overcast
7:53 AM 54.0 °F 53.1 °F 97% 30.04 in 2.0 mi SSE 8.1 mph - 0.04 in Rain Light Rain
8:03 AM 53.6 °F 53.6 °F 100% 30.00 in 1.8 mi SE 11.5 mph - 0.01 in Rain Light Rain
8:45 AM 53.6 °F 53.6 °F 100% 29.99 in 2.5 mi SE 11.5 mph - 0.12 in Rain Light Rain
8:53 AM 54.0 °F 52.0 °F 93% 30.02 in 5.0 mi SE 11.5 mph - 0.13 in   Overcast
9:53 AM 55.0 °F 53.1 °F 93% 30.02 in 4.0 mi SSE 9.2 mph - 0.00 in   Overcast
10:15 AM 55.4 °F 53.6 °F 94% 29.98 in 2.0 mi SSE 10.4 mph - 0.01 in Rain Light Rain
10:38 AM 55.4 °F 53.6 °F 94% 29.98 in 4.0 mi SE 9.2 mph - 0.02 in   Overcast
10:53 AM 55.0 °F 54.0 °F 96% 30.02 in 3.0 mi SSE 8.1 mph - 0.02 in   Overcast
11:35 AM 55.4 °F 53.6 °F 94% 29.98 in 2.0 mi SSE 8.1 mph - N/A   Overcast
11:53 AM 55.9 °F 54.0 °F 93% 30.00 in 2.0 mi SSE 8.1 mph - 0.01 in   Overcast
12:19 PM 55.4 °F 53.6 °F 94% 29.97 in 1.5 mi SSE 6.9 mph - N/A   Overcast
12:53 PM 55.9 °F 55.0 °F 97% 30.00 in 1.5 mi South 5.8 mph - N/A   Overcast
1:53 PM 55.9 °F 55.0 °F 97% 29.98 in 2.0 mi South 6.9 mph - 0.01 in Rain Light Rain
2:19 PM 57.2 °F 55.4 °F 94% 29.95 in 3.0 mi South 5.8 mph - 0.00 in   Overcast
2:53 PM 57.0 °F 55.0 °F 93% 29.97 in 8.0 mi SSW 5.8 mph - 0.00 in   Overcast
3:14 PM 57.2 °F 55.4 °F 94% 29.94 in 1.8 mi SSW 4.6 mph - 0.03 in Rain Rain
3:27 PM 57.2 °F 55.4 °F 94% 29.93 in 3.0 mi SSW 4.6 mph - 0.06 in Rain Light Rain
3:34 PM 57.2 °F 55.4 °F 94% 29.93 in 3.0 mi SW 5.8 mph - 0.06 in Rain Light Rain
3:53 PM 57.9 °F 55.0 °F 90% 29.96 in 6.0 mi SW 5.8 mph - 0.07 in   Overcast
4:53 PM 57.9 °F 55.9 °F 93% 29.97 in 10.0 mi SW 5.8 mph - 0.00 in   Overcast
5:02 PM 59.0 °F 55.4 °F 88% 29.94 in 10.0 mi SW 4.6 mph - N/A   Overcast
5:04 PM 59.0 °F 55.4 °F 88% 29.94 in 10.0 mi WSW 5.8 mph - N/A   Mostly Cloudy
5:07 PM 59.0 °F 55.4 °F 88% 29.94 in 10.0 mi WSW 5.8 mph - N/A   Overcast
5:53 PM 59.0 °F 55.9 °F 90% 29.97 in 10.0 mi West 8.1 mph - N/A   Overcast
5:55 PM 59.0 °F 55.4 °F 88% 29.94 in 10.0 mi West 8.1 mph - N/A   Overcast
6:02 PM 59.0 °F 55.4 °F 88% 29.94 in 10.0 mi West 5.8 mph - N/A   Overcast
6:08 PM 59.0 °F 55.4 °F 88% 29.94 in 10.0 mi West 5.8 mph - N/A   Overcast
6:15 PM 59.0 °F 55.4 °F 88% 29.94 in 10.0 mi West 6.9 mph - N/A   Overcast
6:53 PM 59.0 °F 55.9 °F 90% 29.97 in 10.0 mi WSW 3.5 mph - N/A   Overcast
7:53 PM 57.2 °F 55.4 °F 94% 29.95 in 10.0 mi SW 3.5 mph - N/A   Overcast
8:53 PM 55.4 °F 55.4 °F 100% 29.97 in 10.0 mi Calm Calm - N/A   Mostly Cloudy
9:21 PM 55.4 °F 53.6 °F 94% 29.96 in 1.5 mi Calm Calm - N/A   Mostly Cloudy
9:32 PM 53.6 °F 53.6 °F 100% 29.96 in 3.0 mi WSW 3.5 mph - N/A   Overcast
9:53 PM 55.0 °F 53.1 °F 93% 29.99 in 9.0 mi WSW 3.5 mph - N/A   Overcast
10:20 PM 55.4 °F 53.6 °F 94% 29.95 in 10.0 mi Calm Calm - N/A   Overcast
10:53 PM 54.0 °F 52.0 °F 93% 29.98 in 10.0 mi Calm Calm - N/A   Scattered Clouds
11:15 PM 51.8 °F 51.8 °F 100% 29.95 in 2.0 mi Calm Calm - N/A   Partly Cloudy
11:18 PM 51.8 °F 51.8 °F 100% 29.95 in 1.0 mi Calm Calm - N/A   Mist
11:23 PM 51.8 °F 50.0 °F 94% 29.95 in 0.2 mi Calm Calm - N/A Fog Fog
11:44 PM 50.0 °F 48.2 °F 94% 29.95 in 0.5 mi Calm Calm - N/A Fog Fog
11:53 PM 48.9 °F 48.0 °F 97% 29.98 in 0.5 mi Calm Calm - N/A Fog Fog